Location: Newark
(50.0306°N, 2.3272°E)
Time: 02:03:52
(UTC+00:00)

Transit 2A Rocket - Pass Details

Date: 06 December 2019
Orbit: 593 x 910 km, 66.7° (Epoch: 27 January)

Event Time Altitude Azimuth Distance (km) Brightness Sun altitude
Rises 22:34:43 0° 323° (NW) 2,841 - -59.5°
Reaches altitude 10° 22:38:51 10° 2° (N) 1,946 - -59.9°
Maximum altitude 22:39:56 11° 16° (NNE) 1,901 - -60.0°
Drops below altitude 10° 22:41:01 10° 31° (NNE) 1,959 - -60.0°
Sets 22:45:14 0° 69° (ENE) 2,910 - -60.4°
